Date String (YYYY-MM-DD hh:mm:ss) UTC,Instrument flags,absolute air pressure of the measurement (hPa),sample flow rate (lpm),inlet stack bypass flow (lpm),air temperature of the measurement (°C),ambient temperature measured by the external sensor (°C),aerosol sample conditioner tube jacket temperature (°C),OPC LED temperature (°C),internal box temperature (°C),relative humidity of the measurement (%),span deviation,mass concentration of particles derived from Lorenz-Mie calculation of OPC scattering (μg/m³),mass concentration of particles derived from Lorenz-Mie calculation of OPC scattering (μg/m³),mass concentration of particles derived from Lorenz-Mie calculation of OPC scattering (μg/m³)
DateTimeUTC,F1_M11,P_M11,Q1_M11,Q2_M11,T1_M11,T2_M11,T3_M11,T4_M11,T5_M11,U1_M11,ZSPAN_M11,X2_M11,X0_M11,X1_M11
2023-07-11 15:00:00,SystemResetWarning,0831.4,5.00,000.00,029.0,026.2,000.0,037.5,030.4,27.2,0000.0,0005.79,0013.64,0004.85
2023-07-11 15:01:00,SystemResetWarning,0831.5,5.00,000.00,029.0,026.6,000.0,037.5,030.5,28.6,0000.0,0005.77,0013.98,0004.86
2023-07-11 15:02:00,SystemResetWarning,0831.4,5.01,000.00,029.1,026.9,000.0,037.5,030.6,28.7,0000.0,0005.75,0013.82,0004.85
2023-07-11 15:03:00,SystemResetWarning,0831.4,4.99,000.00,029.1,027.2,000.0,037.5,030.7,26.7,0000.0,0005.72,0014.50,0004.85
2023-07-11 15:04:00,SystemResetWarning,0831.4,5.00,000.00,029.1,027.4,000.0,037.6,030.7,26.5,0000.0,0005.70,0014.20,0004.81
2023-07-11 15:05:00,SystemResetWarning,0831.4,5.00,000.00,029.1,027.6,000.0,037.6,030.8,27.9,0000.0,0005.70,0014.00,0004.80
2023-07-11 15:06:00,SystemResetWarning,0831.4,5.00,000.00,029.2,027.8,000.0,037.6,030.9,27.0,0000.0,0005.74,0013.94,0004.80
2023-07-11 15:07:00,SystemResetWarning,0831.4,4.99,000.00,029.2,027.9,000.0,037.6,030.9,27.4,0000.0,0005.65,0014.36,0004.78
2023-07-11 15:08:00,SystemResetWarning,0831.4,5.01,000.00,029.3,028.1,000.0,037.6,031.0,27.1,0000.0,0005.65,0014.76,0004.79
2023-07-11 15:09:00,SystemResetWarning,0831.4,4.99,000.00,029.3,027.4,000.0,037.6,030.9,27.7,0000.0,0005.59,0014.49,0004.78
2023-07-11 15:10:00,SystemResetWarning,0831.5,5.00,000.00,029.2,025.7,000.0,037.5,030.7,28.8,0000.0,0005.55,0013.77,0004.75
2023-07-11 15:11:00,SystemResetWarning,0831.6,5.01,000.00,029.1,025.2,000.0,037.4,030.5,28.8,0000.0,0005.50,0013.08,0004.73
2023-07-11 15:12:00,SystemResetWarning,0831.7,5.01,000.00,029.1,025.5,000.0,037.4,030.4,30.0,0000.0,0005.47,0012.38,0004.72
2023-07-11 15:13:00,SystemResetWarning,0831.7,4.99,000.00,029.0,025.9,000.0,037.4,030.4,28.9,0000.0,0005.43,0012.45,0004.70
2023-07-11 15:14:00,SystemResetWarning,0831.7,4.99,000.00,029.0,026.3,000.0,037.5,030.5,29.0,0000.0,0005.41,0011.80,0004.67
2023-07-11 15:15:00,SystemResetWarning,0831.7,5.00,000.00,029.0,026.7,000.0,037.5,030.5,26.9,0000.0,0005.43,0012.34,0004.67
2023-07-11 15:16:00,SystemResetWarning,0831.6,5.01,000.00,029.0,027.0,000.0,037.5,030.6,27.4,0000.0,0005.40,0012.48,0004.65
2023-07-11 15:17:00,SystemResetWarning,0831.6,4.99,000.00,029.1,027.3,000.0,037.5,030.7,28.4,0000.0,0005.37,0012.26,0004.62
2023-07-11 15:18:00,SystemResetWarning,0831.6,5.00,000.00,029.1,027.5,000.0,037.5,030.7,30.1,0000.0,0005.39,0011.80,0004.62
2023-07-11 15:19:00,SystemResetWarning,0831.6,5.00,000.00,029.1,027.7,000.0,037.6,030.8,29.3,0000.0,0005.42,0011.57,0004.60
2023-07-11 15:20:00,SystemResetWarning,0831.6,5.00,000.00,029.2,027.8,000.0,037.6,030.9,27.1,0000.0,0005.47,0012.23,0004.60
2023-07-11 15:21:00,SystemResetWarning,0831.5,4.98,000.00,029.2,026.8,000.0,037.5,030.8,27.4,0000.0,0005.48,0012.99,0004.62
2023-07-11 15:22:00,SystemResetWarning,0831.5,5.02,000.00,029.1,025.3,000.0,037.4,030.5,26.9,0000.0,0005.50,0014.36,0004.63
2023-07-11 15:23:00,SystemResetWarning,0831.5,5.01,000.00,029.0,025.1,000.0,037.3,030.4,27.0,0000.0,0005.52,0014.93,0004.63
2023-07-11 15:24:00,SystemResetWarning,0831.5,5.00,000.00,029.0,025.4,000.0,037.4,030.3,26.1,0000.0,0005.60,0015.46,0004.65
2023-07-11 15:25:00,SystemResetWarning,0831.5,5.00,000.00,028.9,025.9,000.0,037.4,030.3,26.3,0000.0,0005.69,0015.40,0004.67
2023-07-11 15:26:00,SystemResetWarning,0831.4,5.01,000.00,028.9,026.3,000.0,037.4,030.4,26.4,0000.0,0005.73,0015.38,0004.70
2023-07-11 15:27:00,SystemResetWarning,0831.6,4.99,000.00,028.9,026.7,000.0,037.4,030.5,24.4,0000.0,0005.74,0015.51,0004.71
2023-07-11 15:28:00,SystemResetWarning,0831.5,4.99,000.00,029.0,027.0,000.0,037.4,030.6,29.3,0000.0,0005.69,0016.00,0004.70
2023-07-11 15:29:00,SystemResetWarning,0831.6,5.00,000.00,029.0,027.3,000.0,037.5,030.6,29.6,0000.0,0005.72,0017.07,0004.70
2023-07-11 15:30:00,SystemResetWarning,0831.6,5.00,000.00,029.0,027.5,000.0,037.5,030.7,28.6,0000.0,0005.71,0017.57,0004.68
2023-07-11 15:31:00,SystemResetWarning,0831.5,5.00,000.00,029.1,027.7,000.0,037.5,030.8,28.2,0000.0,0005.67,0017.15,0004.66
2023-07-11 15:32:00,SystemResetWarning,0831.6,4.99,000.00,029.1,027.7,000.0,037.5,030.8,28.8,0000.0,0005.64,0016.69,0004.63
2023-07-11 15:33:00,SystemResetWarning,0831.5,4.99,000.00,029.1,026.3,000.0,037.4,030.6,28.1,0000.0,0005.62,0015.38,0004.59
2023-07-11 15:34:00,SystemResetWarning,0831.5,5.01,000.00,029.0,025.1,000.0,037.3,030.4,27.5,0000.0,0005.61,0015.02,0004.55
2023-07-11 15:35:00,SystemResetWarning,0831.5,5.01,000.00,029.0,025.2,000.0,037.2,030.3,27.7,0000.0,0005.59,0014.83,0004.54
2023-07-11 15:36:00,SystemResetWarning,0831.5,5.00,000.00,028.9,025.6,000.0,037.3,030.2,28.4,0000.0,0005.64,0015.58,0004.57
2023-07-11 15:37:00,SystemResetWarning,0831.6,4.99,000.00,028.9,026.0,000.0,037.3,030.3,30.3,0000.0,0005.69,0016.21,0004.59
2023-07-11 15:38:00,SystemResetWarning,0831.6,5.00,000.00,028.9,026.4,000.0,037.3,030.4,30.1,0000.0,0005.72,0017.28,0004.57
2023-07-11 15:39:00,SystemResetWarning,0831.6,5.00,000.00,028.9,026.8,000.0,037.4,030.5,31.1,0000.0,0005.75,0016.81,0004.59
2023-07-11 15:40:00,SystemResetWarning,0831.6,5.01,000.00,028.9,027.1,000.0,037.4,030.5,32.4,0000.0,0005.72,0015.73,0004.58
2023-07-11 15:41:00,SystemResetWarning,0831.7,5.00,000.00,029.0,027.4,000.0,037.4,030.6,30.9,0000.0,0005.69,0015.11,0004.58
2023-07-11 15:42:00,SystemResetWarning,0831.6,5.00,000.00,029.0,027.6,000.0,037.4,030.7,31.8,0000.0,0005.69,0015.62,0004.58
2023-07-11 15:43:00,SystemResetWarning,0831.6,4.98,000.00,029.0,027.3,000.0,037.4,030.7,31.5,0000.0,0005.76,0016.23,0004.60
2023-07-11 15:44:00,SystemResetWarning,0831.6,5.00,000.00,029.0,025.8,000.0,037.3,030.4,30.2,0000.0,0005.78,0016.25,0004.63
2023-07-11 15:45:00,SystemResetWarning,0831.5,5.01,000.00,028.9,025.1,000.0,037.2,030.3,31.0,0000.0,0005.80,0016.44,0004.66
2023-07-11 15:46:00,SystemResetWarning,0831.5,5.01,000.00,028.9,025.3,000.0,037.2,030.2,31.4,0000.0,0005.82,0016.55,0004.66
2023-07-11 15:47:00,SystemResetWarning,0831.5,5.00,000.00,028.8,025.7,000.0,037.2,030.2,30.7,0000.0,0005.76,0016.61,0004.64
2023-07-11 15:48:00,SystemResetWarning,0831.5,5.00,000.00,028.8,026.1,000.0,037.3,030.3,30.9,0000.0,0005.76,0015.98,0004.64
2023-07-11 15:49:00,SystemResetWarning,0831.5,5.00,000.00,028.8,026.5,000.0,037.3,030.4,31.9,0000.0,0005.78,0015.40,0004.65
2023-07-11 15:50:00,SystemResetWarning,0831.6,5.00,000.00,028.9,026.9,000.0,037.3,030.4,31.4,0000.0,0005.80,0016.36,0004.66
2023-07-11 15:51:00,SystemResetWarning,0831.6,5.00,000.00,028.9,027.2,000.0,037.3,030.5,30.8,0000.0,0005.82,0017.04,0004.67
2023-07-11 15:52:00,SystemResetWarning,0831.6,5.00,000.00,028.9,027.4,000.0,037.3,030.6,31.0,0000.0,0005.90,0017.56,0004.69
2023-07-11 15:53:00,SystemResetWarning,0831.5,5.00,000.00,029.0,027.6,000.0,037.4,030.7,31.4,0000.0,0005.97,0018.28,0004.72
2023-07-11 15:54:00,SystemResetWarning,0831.5,4.99,000.00,029.0,026.8,000.0,037.3,030.6,31.0,0000.0,0006.01,0018.33,0004.74
2023-07-11 15:55:00,SystemResetWarning,0831.5,5.00,000.00,028.9,025.5,000.0,037.2,030.3,32.4,0000.0,0006.04,0020.13,0004.76
2023-07-11 15:56:00,SystemResetWarning,0831.5,5.01,000.00,028.9,025.2,000.0,037.1,030.2,31.1,0000.0,0006.08,0020.73,0004.78
2023-07-11 15:57:00,SystemResetWarning,0831.5,5.00,000.00,028.8,025.5,000.0,037.1,030.2,30.9,0000.0,0006.07,0020.19,0004.80
2023-07-11 15:58:00,SystemResetWarning,0831.6,5.00,000.00,028.8,025.9,000.0,037.2,030.2,30.9,0000.0,0006.10,0020.41,0004.80
2023-07-11 15:59:00,SystemResetWarning,0831.6,5.00,000.00,028.8,026.3,000.0,037.2,030.3,32.0,0000.0,0006.15,0021.20,0004.82
